Regional Weather Roundup
Issued by NWS

Home | Current Version | Previous Version | Text Only | Print | Product List | Glossary On
Versions: 1 2 3 4 5 6 7 8 9 10 11 12 13 14 15 16 17 18 19 20 21 22 23 24 25 26 27
000
ASUS44 KBMX 212310
RWRAL

ALABAMA REGIONAL WEATHER ROUNDUP
NATIONAL WEATHER SERVICE BIRMINGHAM AL
500 PM CST TUE NOV 21 2017

NOTE: "FAIR" INDICATES FEW OR NO CLOUDS BELOW 12,000 FEET
WITH NO SIGNIFICANT WEATHER AND/OR OBSTRUCTIONS TO VISIBILITY.

THE REMARK "TC" DENOTES TEMPERATURE IN DEGREES CELSIUS.

ALZ001>011-014-016>018-020-220000-
NORTH ALABAMA

CITY           SKY/WX    TMP DP  RH WIND       PRES   REMARKS
MUSCLE SHOALS  CLEAR     53  34  48 NW5       30.03S
HUNTSVILLE     PTCLDY    55  39  54 NW6       30.00F
DECATUR        CLEAR     54  37  52 VRB6      30.02S
HALEYVILLE     FAIR      50  39  66 CALM      30.05R
GADSDEN        CLEAR     51  47  86 CALM      30.01R
$$

ALZ012-013-022-023-030>036-040>044-220000-
WEST CENTRAL ALABAMA

CITY           SKY/WX    TMP DP  RH WIND       PRES   REMARKS
TUSCALOOSA     CLEAR     55  42  61 CALM      30.01S
DEMOPOLIS        N/A     53  47  79 CALM      30.00R
$$

ALZ015-024>026-033>036-041>044-220000-
CENTRAL ALABAMA

CITY           SKY/WX    TMP DP  RH WIND       PRES   REMARKS
BIRMINGHAM     PTCLDY    57  37  47 CALM      30.02S
MONTGOMERY     CLEAR     61  41  47 CALM      30.00R
SHELBY CO ARPT CLEAR     55  42  61 CALM      30.00S
MAXWELL AFB    CLEAR     58  48  69 CALM      29.98S
GREENVILLE     FAIR      61  46  57 N3        29.98R
SELMA          FAIR      55  45  67 MISG      29.99S
PRATTVILLE     FAIR      56  46  71 CALM      29.98S
BESSEMER       FAIR      56  36  47 CALM      30.01S
TALLADEGA      FAIR      57  52  84 CALM      30.00F
PELL CITY      CLEAR     52  50  93 CALM      30.00S
MARION         FAIR      56  45  65 CALM      29.99S
SYLACAUGA      FAIR      55  47  76 CALM      30.00S
$$

ALZ019-021-028-029-037-038-045>048-220000-
EAST CENTRAL ALABAMA

CITY           SKY/WX    TMP DP  RH WIND       PRES   REMARKS
ANNISTON       CLEAR     56  51  84 CALM      30.00S
ALEXANDER CITY CLEAR     56  53  87 CALM      30.00R
AUBURN         MOCLDY    61  56  83 CALM      30.01S
$$

ALZ051>064-220000-
SOUTHWEST ALABAMA

CITY           SKY/WX    TMP DP  RH WIND       PRES   REMARKS
MOBILE         MOCLDY    63  51  65 CALM      29.98R
BROOKLEY FIELD CLEAR     66  55  67 N5        29.99R
EVERGREEN      CLEAR     58  49  72 CALM      29.99R
$$

ALZ049-050-065>069-220000-
SOUTHEAST ALABAMA

CITY           SKY/WX    TMP DP  RH WIND       PRES   REMARKS
DOTHAN         CLOUDY    63  60  90 N5        30.01R
OZARK          CLOUDY    64  57  79 N3        29.97S
TROY           PTCLDY    61  54  77 NE3       30.00R
EUFAULA        CLOUDY    64  60  87 CALM      29.98R
$$




USA.gov is the U.S. government's official web portal to all federal, state and local government web resources and services.